Tracking 34171 objects as of 21-May-2026
HD Live streaming from Space Station
objects crossing your sky now

KUIPER-00269

Track KUIPER-00269 now!
10-day predictions
KUIPER-00269 is classified as:


NORAD ID: 68587
Int'l Code: 2026-072Q
Perigee: 455.0 km
Apogee: 461.1 km
Inclination: 51.9 °
Period: 93.6 minutes
Semi major axis: 6829 km
RCS: Unknown
Launch date: April 4, 2026
Source: United States (US)
Launch site: AIR FORCE EASTERN TEST RANGE (AFETR)
Your satellite tracking list
Your tracking list is empty




NASA's NSSDC Master Catalog

Two Line Element Set (TLE):
1 68587U 26072Q   26140.76497646  .00026748  00000-0  70338-3 0  9994
2 68587  51.8723 309.3897 0004487 267.2659  92.7815 15.38381381  7168
Source of the keplerian elements: AFSPC